RH
28 33 41 50 54 54 56 57 61 66 67 70 68 69 67 62 67 63 61 77 96 100 84 70 86 105 107 105 96 85 78 70 67 65 73 86 94 99 100 101 103 102 102 97 93 95 97 98 97 94 91 87 83 85 90 88 85 83 83 82 83 84 87 90 93 98 102 102 101 101 103 103 101 99 99 100 100 101 103 103 103 98 91 84 77 72 68 66 62 58 56 53 51 49 48 46 43
31 37 46 54 58 63 65 62 66 70 71 76 75 73 72 65 67 69 65 67 85 105 101 80 73 84 90 91 85 75 69 67 68 67 69 73 77 84 88 93 98 100 101 96 89 89 93 97 100 99 97 93 86 87 89 87 85 83 81 77 76 74 72 73 76 81 88 96 102 104 102 102 102 101 100 100 102 101 101 101 103 105 103 94 85 81 76 72 67 64 63 60 56 53 50 49 47
35 42 49 57 62 67 71 68 72 76 76 80 80 78 75 71 71 71 70 66 73 92 109 100 75 63 62 65 68 67 64 61 62 67 74 77 74 73 71 72 76 81 87 89 86 85 86 89 92 92 89 85 79 79 82 82 82 82 83 86 89 87 84 82 81 81 82 88 97 104 106 105 105 106 103 101 102 103 102 102 102 103 107 106 98 91 84 77 73 70 67 66 64 60 56 53 50
42 49 54 59 64 69 74 75 78 81 81 82 84 83 77 74 76 76 73 70 70 76 96 107 92 69 54 50 54 61 64 62 61 63 70 80 81 71 63 59 58 62 65 68 74 75 76 76 73 72 71 69 71 75 80 82 82 86 91 96 100 101 100 100 100 96 91 88 88 94 101 104 105 106 105 104 104 102 100 103 104 102 104 107 104 97 90 84 79 75 71 69 70 68 65 61 57
50 58 61 63 69 74 78 82 84 87 88 87 87 83 78 77 81 84 80 77 75 74 80 93 100 92 75 61 55 59 63 63 63 63 67 75 79 75 70 63 55 55 56 55 60 64 67 65 61 63 62 64 71 77 85 89 88 89 89 86 86 89 91 92 95 94 90 88 86 88 93 99 102 105 107 110 108 104 103 103 106 108 105 103 99 95 91 87 82 77 73 72 73 74 73 70 66
60 65 68 71 75 78 80 85 87 89 90 90 87 82 79 81 84 88 88 83 79 79 77 77 87 97 99 92 77 67 64 62 61 61 69 74 76 82 86 80 67 62 61 57 57 60 62 58 56 60 61 63 71 76 81 82 80 76 72 71 70 74 80 83 85 85 87 87 88 90 93 97 100 104 108 112 112 109 109 106 107 111 109 104 99 94 91 89 85 80 77 76 77 79 80 77 74
68 74 77 80 82 82 82 83 84 86 90 93 91 85 84 86 87 88 92 91 85 83 79 73 74 81 92 101 101 92 83 77 70 63 66 73 77 82 90 94 89 81 73 66 61 57 55 54 51 54 58 60 63 66 68 70 70 66 65 69 73 76 81 87 88 87 89 90 91 92 94 97 99 102 106 110 110 108 107 104 105 106 106 104 102 101 99 97 95 93 91 90 90 93 93 90 85
76 85 90 92 92 90 86 85 84 85 90 96 96 93 92 90 90 91 94 98 95 89 84 76 72 74 77 85 97 104 103 99 91 81 71 71 78 82 89 98 103 99 85 72 65 56 53 59 60 58 59 61 62 64 66 70 73 72 71 73 77 80 85 93 99 100 100 100 101 100 100 101 101 101 104 105 106 106 105 105 105 103 104 103 102 102 102 102 101 101 101 101 100 102 103 103 100
79 89 98 102 102 99 95 93 89 87 87 91 95 99 102 100 98 98 99 102 102 99 96 90 81 76 74 73 80 89 99 106 106 99 88 79 81 90 98 101 102 104 97 85 75 63 53 56 62 62 62 63 66 69 73 76 78 80 79 76 75 77 82 89 96 103 106 107 106 104 105 105 101 101 102 102 102 103 102 104 105 102 102 102 101 101 100 100 100 101 101 100 101 101 102 103 105
73 83 95 101 106 106 103 102 98 93 89 89 89 91 98 102 104 103 102 102 103 105 104 103 94 84 78 73 74 76 81 90 99 105 104 96 90 96 105 104 100 101 101 99 94 85 69 58 57 57 58 61 66 73 78 82 85 87 87 84 80 78 78 80 84 91 98 104 106 105 107 106 102 102 102 102 101 100 100 101 102 100 102 102 101 101 100 100 100 101 100 100 101 100 100 101 101
74 80 87 92 99 104 103 103 103 99 94 93 92 89 88 92 97 101 106 106 104 104 105 106 101 93 88 83 81 79 76 75 81 92 101 105 104 102 105 104 101 101 101 100 101 100 93 81 71 65 60 57 60 68 78 85 91 94 96 95 93 89 86 84 83 83 89 96 101 103 104 105 105 104 104 105 103 101 101 100 100 100 101 101 100 100 100 100 100 101 101 101 102 100 101 102 100
84 88 88 85 88 92 92 95 100 101 99 97 97 95 91 88 87 89 97 103 105 105 104 108 107 102 98 94 89 84 82 80 77 79 83 91 100 103 105 106 102 100 100 101 100 100 101 98 91 83 75 68 63 65 73 83 90 95 98 101 102 100 98 95 92 88 87 88 90 93 95 100 104 107 108 108 105 104 104 101 100 101 101 100 101 101 100 101 100 100 101 101 101 101 101 101 101
93 95 94 89 87 87 88 90 93 94 94 96 97 96 95 94 91 89 88 89 96 102 102 104 107 109 107 102 98 90 84 85 85 81 78 78 82 84 88 96 102 103 103 102 101 101 101 100 99 97 94 87 80 75 74 78 84 90 94 99 102 103 103 103 101 97 94 92 89 88 88 90 95 102 107 108 104 100 101 102 101 101 101 100 100 101 100 101 100 100 100 100 100 100 100 100 101
99 99 99 97 96 96 95 94 93 89 86 91 97 98 98 98 97 95 92 87 87 92 95 97 98 103 107 107 107 103 94 90 91 86 80 77 76 74 72 73 82 92 103 107 103 102 101 100 100 99 100 99 96 92 87 84 84 87 91 94 98 100 101 102 103 102 100 99 99 99 97 95 93 93 96 100 98 92 91 95 100 102 102 101 101 100 101 101 100 100 101 100 100 100 100 100 101
101 100 100 100 100 100 100 99 97 95 92 93 97 101 103 102 101 98 94 91 87 86 87 88 89 92 95 100 106 109 104 97 96 95 89 84 82 80 76 70 65 67 82 98 105 106 102 100 101 100 99 100 100 100 99 96 94 93 93 92 92 91 91 93 96 96 96 96 98 102 102 103 105 102 97 94 92 91 88 88 95 104 104 100 101 101 101 101 100 101 100 101 100 100 101 100 100
96 100 101 101 100 99 100 100 99 100 99 99 99 100 102 102 101 99 96 93 88 86 87 85 83 82 82 86 94 102 104 99 96 97 97 95 91 88 86 84 77 67 64 73 88 102 105 100 100 101 101 100 100 100 100 100 99 99 99 97 94 91 88 87 88 88 89 88 90 91 92 96 103 108 107 101 95 92 93 91 93 102 105 101 102 103 101 101 101 101 100 100 101 101 100 100 100
80 89 94 97 100 101 100 100 100 99 99 100 101 100 100 98 95 92 91 90 86 83 83 83 81 79 77 77 82 90 96 98 96 93 94 95 94 92 90 89 86 81 74 68 70 83 100 105 103 101 100 100 100 100 100 100 100 99 100 101 100 98 96 94 90 88 86 85 84 83 82 85 90 96 101 101 98 94 95 97 97 102 105 103 105 103 100 102 101 100 100 100 100 101 100 100 100
70 77 81 84 91 97 98 100 100 100 101 100 100 100 100 100 100 98 96 96 94 90 84 78 77 77 75 75 78 84 89 94 95 93 91 91 93 94 93 90 86 83 80 77 72 71 82 95 102 103 104 103 102 100 100 100 100 100 100 99 100 100 100 101 100 99 98 95 89 83 77 75 77 80 84 86 89 90 90 93 98 104 105 103 104 102 101 105 104 101 101 101 100 100 100 100 100
71 77 79 79 84 89 91 92 93 95 98 102 102 102 101 100 99 101 105 106 105 103 98 88 83 79 76 73 73 76 82 88 90 88 87 87 87 89 92 95 93 89 84 80 78 74 72 77 83 89 97 103 106 105 105 104 103 102 102 103 105 104 104 105 105 105 108 107 99 90 79 72 69 68 70 72 75 78 79 82 89 97 101 99 100 101 101 104 105 103 100 101 101 100 100 100 100
75 78 78 79 82 80 79 81 84 85 86 90 94 98 102 103 101 102 103 102 99 96 98 102 100 93 85 79 74 71 73 79 83 84 85 85 84 83 85 89 93 95 94 90 87 84 79 76 75 76 82 89 96 99 101 105 106 104 104 106 107 108 109 109 107 106 106 106 102 96 87 79 74 69 66 65 65 67 68 71 74 80 84 85 89 94 98 101 104 104 102 102 102 102 102 100 100
77 81 84 88 88 85 84 86 89 89 87 86 87 90 96 99 101 103 103 102 99 90 85 95 104 105 100 92 84 78 75 74 75 78 82 86 88 88 86 85 88 90 94 97 97 96 93 89 86 85 85 87 89 89 89 92 94 96 98 100 100 99 100 101 101 100 97 96 95 93 90 86 82 78 73 69 66 65 65 65 66 67 69 70 73 78 84 88 91 95 97 98 101 104 103 101 100
58 64 69 75 78 81 85 87 89 90 92 92 91 92 92 93 95 95 97 101 102 98 88 86 93 100 104 101 96 90 84 78 73 71 73 78 83 89 93 93 94 94 95 96 96 97 98 98 97 97 98 98 99 97 94 90 89 89 89 90 91 90 90 92 94 92 90 88 87 85 83 82 80 77 73 70 67 65 63 62 61 61 62 63 64 66 69 73 75 79 83 86 92 97 99 100 100
42 45 46 49 52 55 58 59 62 66 72 76 78 80 82 86 90 91 95 95 93 96 95 91 92 94 97 97 99 100 96 91 86 80 74 72 73 76 82 89 96 100 102 101 98 98 99 98 96 97 98 99 102 104 103 101 99 98 95 93 92 91 90 92 91 90 89 88 87 84 82 81 79 77 73 70 68 65 63 61 59 58 57 58 58 60 61 63 65 67 71 74 78 83 88 92 95
40 40 40 41 42 44 44 44 44 45 50 54 57 59 62 68 73 80 89 90 88 95 97 95 96 97 98 96 97 101 101 100 99 97 92 87 82 77 75 77 83 90 96 99 100 100 101 98 95 92 91 93 97 99 100 100 100 101 100 99 97 97 98 98 96 96 96 95 94 92 90 89 86 84 81 79 77 75 73 70 68 65 62 61 59 59 58 59 59 60 62 64 67 70 74 78 83
40 39 39 39 38 39 40 41 41 40 41 43 46 49 50 52 55 59 64 68 77 90 96 97 98 97 98 98 98 100 103 103 103 103 102 100 97 95 92 88 85 88 93 96 98 99 99 97 95 90 87 88 91 94 95 95 97 99 100 101 100 100 100 100 99 101 102 101 101 100 99 99 97 95 93 91 89 87 84 81 79 76 73 70 68 66 64 62 60 59 59 59 60 61 63 66 69
38 38 38 37 37 37 37 38 38 38 38 39 41 44 46 48 50 52 50 51 58 66 75 86 94 98 97 96 98 99 101 103 103 103 102 101 101 100 101 99 98 99 99 99 100 101 101 101 99 95 88 86 88 90 90 90 90 92 94 97 99 101 102 102 101 101 103 102 101 103 103 103 104 102 101 102 102 100 98 95 92 89 85 81 79 76 73 71 69 66 65 63 62 61 60 60 60
35 36 36 36 35 35 35 36 36 36 36 38 39 41 44 45 47 48 47 47 48 50 54 61 70 78 83 86 90 92 96 98 98 100 101 101 99 98 100 101 102 101 100 101 100 101 102 101 103 101 93 87 87 88 89 89 88 87 88 89 90 93 96 100 101 102 105 103 102 105 103 102 105 104 101 104 107 105 103 102 100 98 96 94 92 91 87 85 83 79 77 74 71 68 66 64 61
32 34 35 35 35 35 34 33 33 34 34 34 36 38 42 44 45 46 45 44 45 46 48 49 52 56 60 63 67 71 78 84 88 93 96 96 96 96 99 101 103 102 101 102 101 101 101 100 102 102 98 94 91 90 90 89 88 87 87 86 84 84 84 86 88 91 94 94 96 100 99 99 103 104 102 104 107 106 103 103 103 101 100 100 100 100 98 96 95 93 89 86 83 78 74 71 68
30 31 31 31 31 29 27 26 25 24 24 25 26 29 32 34 36 39 41 42 43 46 47 48 49 50 51 51 52 53 56 61 67 74 79 84 88 91 93 95 98 101 102 104 104 103 102 101 100 99 99 99 97 98 96 95 93 91 91 90 87 85 84 82 80 80 79 78 79 82 83 84 87 89 91 93 96 97 97 99 99 98 97 97 97 98 97 97 97 96 94 92 89 84 81 77 73
26 25 24 23 23 22 20 19 19 19 19 19 19 21 24 23 23 24 27 30 33 37 40 43 45 47 49 50 51 50 49 48 49 52 56 62 67 72 78 83 88 93 96 98 101 102 102 104 105 105 104 103 104 103 101 100 100 101 102 99 97 97 95 92 90 86 83 80 77 75 74 73 73 73 74 75 77 80 81 83 84 85 85 86 88 89 89 89 89 89 88 87 86 83 80 78 75
20 19 19 18 20 21 20 19 19 19 19 19 19 21 24 22 19 19 20 22 23 24 26 28 31 34 37 41 45 47 48 48 48 47 46 47 48 51 56 62 69 76 81 86 91 94 97 101 105 107 106 107 107 105 106 105 103 103 106 104 102 104 103 100 99 96 92 89 87 86 83 80 78 77 75 73 72 72 71 71 71 71 72 73 75 76 76 78 78 78 78 77 77 76 75 74 73
19 20 19 19 21 22 22 21 20 20 21 21 20 22 25 23 19 20 21 21 21 22 22 22 22 23 25 27 30 33 37 40 43 45 45 45 46 46 46 46 48 52 58 65 73 79 85 90 96 100 103 106 107 106 109 109 104 102 105 106 105 105 104 100 97 95 93 92 93 95 95 94 93 91 89 86 84 82 80 77 75 73 71 70 70 69 69 69 68 68 68 67 67 67 67 66 66
20 22 22 22 23 25 25 24 24 24 24 23 22 25 27 25 23 23 23 23 23 22 22 21 22 22 22 23 23 24 25 27 29 32 35 38 41 44 44 44 45 45 46 48 51 56 61 68 75 83 90 96 101 104 107 108 107 105 105 106 105 104 103 101 99 99 99 98 99 99 99 98 97 96 95 93 93 92 89 87 84 82 81 78 77 76 74 71 67 65 63 62 61 60 59 58 58
23 24 25 25 25 27 28 28 28 27 27 25 25 27 28 26 26 27 28 28 28 27 25 23 23 22 22 21 22 22 22 22 23 23 24 26 29 32 34 37 40 43 45 46 47 48 49 51 54 58 62 67 73 78 84 89 93 96 98 99 100 100 101 102 103 104 104 104 105 103 102 103 103 102 100 98 97 96 95 94 92 91 91 89 88 86 83 79 74 72 70 68 66 65 64 62 60
26 27 27 27 27 28 29 29 29 29 28 27 27 27 26 25 26 27 27 27 28 28 27 27 27 26 25 24 23 23 23 23 23 23 23 23 24 24 25 27 29 31 34 36 39 41 43 44 45 45 47 48 50 52 56 59 62 66 70 73 76 78 80 82 84 86 87 88 91 91 91 93 95 95 94 94 94 94 94 94 93 93 92 91 90 89 87 86 83 81 80 78 76 75 73 71 68
29 30 31 31 30 30 31 31 30 30 29 28 28 27 26 26 26 25 25 25 25 25 25 25 25 26 26 26 27 27 28 28 28 29 28 27 26 25 25 24 24 25 25 26 27 28 30 31 33 35 36 38 39 41 42 43 44 46 47 48 50 51 53 54 55 57 58 59 60 61 62 63 64 65 65 66 67 68 69 69 70 70 70 70 70 70 70 69 68 67 66 64 62 61 60 59 57
32 33 34 34 34 33 33 33 32 31 30 29 29 28 27 27 27 26 26 25 24 24 23 23 23 23 24 24 24 25 26 27 28 30 31 31 31 31 30 29 28 27 26 26 25 25 25 24 25 25 26 27 28 29 30 31 32 32 33 34 34 35 36 37 38 38 39 40 40 41 41 41 41 42 42 43 43 44 45 45 46 46 46 47 47 47 47 47 47 46 46 45 43 43 42 42 41
34 35 36 36 36 35 35 35 34 33 32 32 32 31 30 30 30 29 29 28 28 27 26 25 25 24 24 24 24 24 23 23 24 25 26 27 28 29 30 31 31 31 32 32 32 31 31 30 29 29 28 28 28 28 28 28 28 28 28 29 29 29 29 30 30 31 31 32 33 32 32 32 33 33 34 35 36 36 37 37 37 37 37 37 37 37 37 37 37 37 36 35 35 34 34 33 32
35 36 37 38 39 38 38 37 36 36 35 35 35 34 32 33 34 34 33 32 32 33 32 30 30 29 29 28 28 27 26 25 25 24 24 24 24 24 25 26 26 28 29 30 32 33 33 34 34 33 34 34 34 34 35 35 34 34 35 35 35 35 36 36 36 37 38 38 38 37 36 36 36 37 37 38 38 38 38 38 37 37 36 36 36 36 36 35 35 34 33 33 32 32 31 31 30
36 38 39 40 41 41 41 40 40 40 40 40 40 38 36 36 38 39 39 39 38 38 39 37 36 35 34 34 34 33 32 31 30 29 29 28 27 27 27 27 27 27 27 28 29 30 30 30 30 30 30 30 31 31 31 32 32 33 34 34 34 35 35 36 36 36 37 36 36 36 36 36 36 36 36 35 36 35 35 35 35 35 35 34 34 34 34 34 33 33 32 31 31 30 30 29 29
37 38 40 42 43 44 45 45 44 43 43 44 46 46 43 40 42 45 44 44 45 44 45 45 44 43 42 41 40 39 38 37 36 36 35 35 35 34 34 34 33 33 33 33 34 34 34 34 34 33 33 33 33 33 32 32 32 33 33 34 34 34 34 34 36 36 34 34 35 36 36 37 38 37 37 36 36 36 36 36 36 37 37 36 36 36 36 36 36 35 34 33 32 32 32 31 31
36 38 40 42 43 44 45 46 47 46 44 44 46 49 50 45 44 50 51 50 52 52 51 51 52 52 51 51 51 49 48 47 46 46 46 45 44 44 43 43 43 43 43 43 43 42 42 42 42 42 42 42 41 40 39 38 39 39 39 40 40 40 42 42 42 40 38 38 40 41 42 43 43 43 42 42 40 40 40 40 41 41 42 41 41 41 41 41 41 40 39 38 37 37 35 34 35
36 37 38 40 42 43 44 45 47 49 46 45 46 47 53 50 44 48 54 55 56 56 56 57 57 58 58 58 58 58 58 58 58 58 58 57 55 54 53 52 53 53 53 53 53 52 52 51 51 51 51 50 49 46 45 44 44 44 44 44 45 46 47 48 47 44 44 45 46 48 49 49 50 49 49 48 47 46 46 46 46 45 45 45 44 44 44 44 44 44 43 42 41 40 38 38 38
37 37 38 40 41 42 43 44 46 49 48 47 48 48 53 53 45 48 56 59 61 61 62 63 63 63 62 62 62 63 63 64 64 64 63 62 61 60 60 61 61 61 61 61 61 60 60 59 58 57 57 56 55 53 52 52 51 51 50 50 51 52 53 53 52 52 52 54 56 57 57 57 57 56 55 55 54 54 53 51 50 49 49 48 47 46 45 45 45 45 45 44 43 42 41 41 41
47 46 45 44 44 45 45 45 46 49 49 48 49 49 52 53 46 47 54 59 61 62 63 64 64 64 62 62 63 63 65 66 65 64 61 58 58 58 59 60 61 61 62 63 63 63 62 62 61 61 61 60 59 58 57 57 56 56 56 56 57 57 57 58 57 58 59 61 61 61 61 60 60 59 59 59 58 57 56 54 53 52 52 51 50 49 48 48 47 46 45 44 44 43 43 43 43
59 58 57 57 57 57 56 56 57 59 59 58 59 58 60 60 54 49 52 58 60 61 63 64 64 65 65 64 65 67 69 68 66 63 61 58 56 56 56 57 58 58 60 60 60 60 60 61 60 60 61 60 60 60 59 59 59 58 59 59 60 60 61 61 60 61 63 63 62 62 61 60 60 60 59 59 58 58 56 54 53 51 50 50 50 50 50 49 48 47 46 45 44 44 44 45 44
59 60 62 63 65 68 70 68 67 70 69 68 69 68 67 70 64 54 51 60 68 68 69 73 76 78 79 80 81 81 79 76 74 70 67 65 62 62 61 59 59 58 58 58 58 58 58 58 58 59 60 59 59 59 59 60 59 58 59 59 59 61 61 61 61 63 63 63 63 63 62 61 60 60 60 59 59 60 58 56 54 52 52 51 51 51 51 51 51 51 50 49 48 48 48 49 49
60 60 62 64 66 71 76 75 74 77 76 74 79 80 82 86 79 60 49 58 73 76 75 78 83 88 93 97 96 93 89 83 78 75 72 71 69 69 68 65 65 64 65 66 65 64 63 61 60 60 61 59 59 59 60 62 62 62 63 63 64 66 66 66 66 68 68 67 67 67 65 64 64 63 63 63 63 63 60 59 58 57 56 56 56 56 55 55 55 54 53 52 52 52 52 52 53
66 65 66 69 72 74 81 83 83 86 84 83 90 94 97 103 97 73 53 58 71 74 76 79 82 88 93 96 94 91 89 82 75 73 72 71 67 64 63 62 61 62 64 67 69 70 70 69 66 65 65 63 61 62 63 64 65 66 67 68 70 72 73 74 75 76 75 73 72 71 70 70 70 71 72 73 72 70 67 66 65 64 63 63 63 63 62 62 60 58 57 55 55 54 54 55 57
73 73 72 73 74 73 78 82 83 89 87 88 95 97 100 108 108 90 65 62 70 69 71 75 77 82 86 86 84 81 81 80 78 78 75 71 68 66 65 63 62 62 64 69 75 80 85 87 86 85 83 79 75 73 73 72 72 72 73 75 78 80 81 84 85 86 86 84 82 81 81 80 81 81 81 80 79 76 74 73 72 72 72 72 73 73 72 70 67 64 61 59 59 58 58 59 60
75 77 75 76 76 71 71 73 78 82 80 86 95 97 104 109 111 104 79 64 67 62 61 69 71 75 75 72 72 71 73 78 80 83 85 85 86 86 84 80 77 77 79 83 88 93 99 103 104 104 103 100 97 95 91 88 87 86 87 89 91 91 92 93 94 95 95 94 93 91 90 89 87 86 84 83 81 78 76 75 74 74 76 77 81 84 83 79 75 71 69 67 66 65 65 65 65
70 70 69 71 74 71 67 67 74 77 74 81 89 93 105 109 109 115 96 76 74 61 52 61 65 65 63 59 60 62 65 68 68 76 88 94 94 91 87 84 82 81 81 84 88 90 93 97 100 101 102 104 105 104 101 98 97 97 98 99 99 98 96 96 96 98 98 98 96 94 93 92 89 86 85 84 83 80 77 76 76 77 78 79 82 87 91 90 86 81 78 76 75 74 72 70 70
67 67 65 66 69 68 64 63 69 72 67 74 81 83 93 102 107 115 103 91 97 89 76 74 68 60 55 52 52 56 60 64 66 74 85 92 94 89 85 85 85 81 79 81 84 86 87 88 90 92 93 94 94 94 94 93 92 92 95 97 98 97 97 97 98 99 99 97 95 94 92 89 87 85 84 84 83 82 81 81 81 82 82 81 82 86 92 97 97 92 88 85 83 80 77 74 73
71 69 65 67 68 65 64 63 66 68 62 64 75 77 83 95 106 110 104 99 102 102 98 94 79 65 59 56 57 61 65 67 71 77 81 86 92 94 95 95 89 81 78 78 80 81 83 85 87 89 90 91 90 89 88 87 86 86 89 92 93 94 96 97 99 100 99 97 95 94 92 89 88 86 84 84 85 85 86 86 87 88 88 88 87 88 90 94 97 98 97 95 92 88 84 80 78
80 72 69 72 70 66 66 64 64 68 63 58 67 74 81 96 105 106 107 106 103 101 99 93 82 74 70 72 76 77 79 80 83 86 88 90 96 103 106 103 93 86 83 82 81 81 84 88 91 93 93 94 94 93 92 90 90 92 95 98 99 99 99 100 100 100 100 101 100 99 97 95 94 92 89 89 90 89 89 91 93 95 95 95 95 95 95 94 95 96 98 98 98 95 92 90 88
86 77 79 83 80 77 74 69 71 74 67 59 59 62 78 99 106 105 103 103 105 105 99 90 84 83 83 85 88 90 93 95 96 98 101 104 106 108 110 108 105 103 99 94 92 91 91 92 93 94 95 97 99 98 97 97 98 99 101 102 103 102 102 102 103 104 105 105 105 103 101 100 98 97 96 95 94 93 92 94 96 97 98 98 99 100 100 98 96 94 95 96 96 96 94 94 96
88 82 89 91 90 90 84 76 79 80 70 65 58 50 68 95 103 101 96 92 92 89 86 87 87 88 90 91 92 93 92 91 94 99 103 105 106 106 108 110 111 111 109 106 104 102 99 98 97 99 101 103 104 103 102 102 102 103 104 105 105 105 105 105 107 108 108 107 107 106 103 103 101 101 102 102 100 98 96 95 95 96 98 100 101 101 100 99 96 94 94 95 96 96 95 94 95
88 90 97 100 101 103 96 84 83 81 71 75 69 44 52 85 101 102 97 89 83 75 74 84 91 95 98 100 101 98 95 95 96 96 94 93 96 99 101 103 105 105 105 105 105 104 104 103 103 105 106 107 107 106 106 105 105 105 105 106 107 106 105 105 105 106 105 106 108 107 104 104 103 103 105 104 103 102 99 97 97 97 98 99 99 100 99 98 97 96 96 96 96 95 94 93 91
Wind_Speed
41 38 33 31 33 33 33 32 30 31 31 32 31 30 31 30 30 29 30 34 35 36 38 36 36 39 42 44 44 42 41 39 38 37 38 40 39 40 42 45 49 50 51 51 51 51 51 52 52 52 52 52 51 52 54 55 57 58 59 61 63 64 65 66 67 68 69 71 72 72 70 70 70 70 70 70 70 71 72 71 72 72 72 72 71 71 71 70 69 69 69 68 68 67 67 66 65
41 38 33 32 33 33 34 32 30 32 32 32 32 31 32 30 30 31 30 33 36 38 40 40 40 43 45 46 46 44 43 41 39 39 39 40 40 42 42 43 46 48 50 51 51 52 53 54 55 55 54 54 53 54 56 58 59 59 60 61 62 64 64 65 66 67 67 69 71 73 74 74 72 71 70 70 71 71 72 72 72 72 73 73 72 72 72 72 71 71 70 70 70 70 69 68 67
41 38 34 33 33 33 35 33 31 32 32 32 33 32 33 31 31 32 31 31 35 38 41 44 45 45 45 46 46 45 44 42 40 40 41 42 43 44 45 44 44 45 47 49 51 52 53 55 56 56 55 54 53 54 56 58 59 59 60 60 61 62 63 64 65 66 67 68 69 70 72 75 76 75 74 73 72 72 73 73 73 73 74 74 74 73 73 73 73 72 72 72 72 72 71 71 70
40 38 35 34 34 34 34 34 33 33 33 33 34 34 34 32 31 32 32 32 33 37 42 46 47 47 45 44 44 44 45 44 43 43 44 46 48 47 47 47 45 45 46 47 49 51 52 54 54 54 53 52 52 53 55 57 59 59 61 61 61 61 62 63 65 66 67 68 69 69 70 72 74 76 77 77 76 75 75 75 75 75 76 76 75 75 75 75 75 75 75 74 74 74 73 73 72
40 38 36 35 34 35 34 34 34 34 35 34 35 36 34 33 33 33 33 33 33 35 40 44 46 47 46 46 45 45 46 46 46 45 46 49 51 50 50 50 48 47 48 48 49 51 53 53 53 52 51 51 53 55 57 59 60 60 61 61 60 60 61 62 64 65 65 66 67 68 70 71 73 75 76 78 78 77 77 77 78 78 78 78 78 78 78 78 78 77 76 76 76 75 75 75 74
40 39 37 36 35 36 35 35 35 35 36 36 37 36 34 34 34 34 34 34 34 36 38 40 43 46 47 48 48 48 48 48 48 47 49 51 53 53 53 52 52 51 51 51 51 52 53 52 51 51 50 51 54 56 58 60 60 60 59 59 59 60 60 61 62 64 64 65 66 67 69 71 72 73 75 76 77 78 78 78 78 78 79 79 80 80 80 80 79 79 78 78 78 77 77 77 76
40 39 39 38 37 37 37 37 37 36 37 37 38 37 36 36 36 36 36 36 36 37 38 37 39 43 46 49 49 50 50 50 50 50 51 53 55 56 56 55 55 55 54 54 54 54 53 53 52 52 52 52 55 56 57 58 58 58 58 58 59 60 60 61 62 63 64 65 66 67 68 69 71 72 73 74 75 77 77 77 78 78 78 79 79 79 79 79 80 80 79 79 79 79 79 78 78
40 40 40 40 39 39 39 38 38 37 37 38 39 38 37 38 37 37 37 38 38 38 39 38 38 40 43 46 49 51 52 52 52 52 53 54 56 57 58 58 58 58 57 57 57 56 54 55 57 56 56 56 56 57 58 58 58 58 58 58 59 59 59 59 61 62 63 64 65 66 67 68 69 70 71 72 73 74 75 76 77 78 78 78 78 79 79 79 79 79 79 79 79 79 79 79 79
41 40 41 41 41 41 41 40 40 39 38 38 39 39 39 39 38 39 39 39 40 40 40 40 41 41 42 43 46 50 52 54 54 54 54 54 56 57 59 60 60 59 60 60 60 59 58 58 59 60 60 59 59 59 59 60 60 61 61 60 60 60 59 59 60 61 62 64 65 66 66 66 67 68 68 69 70 71 72 73 74 76 77 78 78 79 79 79 79 79 79 79 79 79 80 80 80
42 41 41 42 42 43 42 42 42 41 40 40 40 40 41 41 41 41 41 41 41 42 42 43 43 43 42 42 44 47 50 53 55 56 55 55 56 58 61 62 62 61 62 63 64 64 63 62 61 62 62 62 62 61 62 62 62 63 63 63 63 62 62 62 62 63 62 63 64 65 65 66 66 67 67 68 68 69 70 71 72 73 75 76 78 79 79 80 80 80 80 80 80 80 80 80 80
42 42 42 42 42 43 43 43 44 43 42 41 42 42 42 42 43 43 42 43 43 44 44 44 45 44 44 44 44 46 47 49 52 55 57 58 59 60 62 64 65 65 64 65 67 68 68 67 66 66 64 63 63 64 64 65 65 65 65 66 65 64 64 64 65 66 66 65 65 65 65 66 66 67 67 68 69 69 70 70 71 72 73 75 76 77 79 80 81 81 81 81 81 81 81 81 81
44 44 44 43 43 44 44 44 45 45 44 43 44 44 44 44 45 45 44 44 45 46 45 45 46 46 46 46 46 47 47 47 49 51 55 58 61 63 64 65 66 66 66 66 67 69 70 71 72 71 69 67 65 66 66 67 68 68 68 68 68 67 66 66 66 66 67 68 68 68 68 68 67 68 68 69 70 70 71 71 72 72 73 75 76 77 78 79 80 81 82 83 83 83 83 83 83
46 45 46 46 45 45 45 45 45 46 45 45 46 46 46 46 47 47 46 46 47 47 47 47 48 48 48 48 48 49 48 48 49 50 51 54 59 62 65 67 69 69 69 68 68 68 70 72 74 74 74 72 70 69 69 69 70 70 71 71 71 71 70 70 69 68 67 67 67 68 69 70 70 70 70 71 71 72 72 72 73 73 74 75 76 78 79 80 81 81 82 83 84 84 85 85 85
46 46 47 48 47 47 47 47 47 47 46 45 47 47 47 48 48 48 48 48 48 49 50 50 50 50 50 49 49 50 50 49 50 51 51 53 55 58 61 64 67 70 71 71 70 70 70 71 73 75 76 76 75 73 72 72 72 72 73 73 74 74 74 73 73 72 71 70 69 68 69 70 70 72 72 73 73 74 74 74 74 74 75 75 76 78 79 81 82 82 83 84 85 85 86 86 86
50 49 48 49 49 49 50 51 50 50 49 48 48 49 50 50 50 50 50 50 50 50 51 52 52 52 52 51 50 51 52 51 51 52 53 53 54 56 58 60 62 65 68 70 71 72 72 71 72 74 76 77 77 77 77 76 76 75 76 76 76 76 76 76 76 75 75 74 73 73 72 72 73 73 74 75 75 75 76 76 76 76 76 77 77 78 79 80 82 83 84 85 86 86 87 87 88
54 53 53 52 52 51 52 53 53 52 52 51 51 51 52 53 53 52 52 52 53 52 53 54 55 55 54 53 52 53 53 53 53 53 54 54 55 56 57 59 60 61 63 66 69 71 72 73 73 74 75 77 78 79 79 79 79 79 79 79 79 79 78 78 77 77 77 76 76 76 76 75 76 76 76 76 77 77 77 78 78 78 78 78 78 79 79 80 81 83 84 85 86 87 88 88 89
54 56 57 57 57 56 56 56 56 56 55 54 54 54 54 54 55 55 55 55 55 55 56 57 57 57 57 55 54 54 55 55 56 56 55 56 56 57 58 59 60 60 61 62 65 68 70 72 74 74 74 76 77 79 80 80 80 80 80 81 81 81 81 80 80 79 79 78 78 78 78 78 78 78 78 78 78 79 80 80 80 80 80 80 80 80 81 81 82 83 84 85 86 87 88 89 89
52 53 56 58 59 60 60 59 60 61 60 59 58 58 57 56 56 57 58 59 59 59 59 59 59 59 59 57 56 56 56 57 58 58 58 57 58 58 59 60 61 61 61 61 63 64 66 70 73 74 74 75 77 79 80 80 81 81 80 81 81 81 81 82 82 82 82 81 80 80 79 79 79 78 78 79 79 79 80 81 82 83 83 83 83 82 82 83 83 84 84 85 86 87 88 89 90
53 53 55 56 58 60 61 61 63 64 65 65 65 64 63 62 61 60 61 62 63 65 65 63 62 62 62 61 59 58 58 59 60 59 59 59 60 60 60 61 62 63 63 63 63 64 64 66 69 71 72 74 77 78 79 80 80 81 81 81 81 81 82 82 82 83 83 83 83 82 81 80 80 80 79 80 80 80 81 82 83 84 85 85 86 85 85 85 85 85 86 86 87 88 88 89 90
56 56 57 58 59 60 60 60 61 63 65 67 67 67 68 67 66 65 64 64 66 68 68 67 67 67 66 65 63 62 61 62 62 61 61 61 61 62 61 62 62 63 64 64 64 65 65 65 66 67 69 72 75 77 78 79 80 81 82 82 82 82 83 83 83 84 84 84 83 83 83 82 81 81 81 81 81 82 82 83 84 85 86 87 88 88 88 88 88 88 88 88 89 89 89 90 90
60 61 61 63 64 64 63 63 63 64 66 67 67 68 68 69 69 69 68 68 70 70 68 69 70 70 69 68 67 66 66 66 66 64 63 63 63 63 63 63 64 64 65 65 66 66 66 66 65 66 67 69 72 74 76 77 78 80 81 82 83 84 84 84 84 85 85 84 85 85 85 84 84 84 84 83 83 83 84 84 85 86 87 88 89 90 90 91 91 91 91 91 91 91 92 92 92
61 63 64 65 67 67 67 68 68 69 70 71 71 71 72 72 72 73 73 73 73 71 70 69 69 70 70 70 70 69 69 69 69 68 67 66 65 65 65 65 65 66 67 67 68 68 68 68 67 67 68 69 70 72 73 74 75 77 78 80 81 82 82 83 84 85 85 85 86 86 86 86 87 87 86 86 86 86 86 86 86 87 87 88 89 90 91 92 92 93 93 93 93 94 94 94 94
60 62 63 64 65 66 67 67 68 68 70 71 72 73 73 74 74 74 74 75 73 71 71 70 69 69 70 71 71 71 71 71 71 71 70 69 69 68 68 67 68 68 69 70 70 70 71 71 70 70 70 70 71 72 73 73 74 75 76 77 78 79 80 81 82 83 84 85 86 86 86 87 87 87 87 87 87 87 88 88 88 88 89 89 90 90 91 92 93 94 95 95 95 96 96 96 97
58 60 60 61 62 63 64 64 64 65 65 67 68 69 70 71 72 73 74 75 73 72 72 72 71 70 70 70 70 71 72 73 74 74 74 73 72 72 71 70 70 70 71 72 72 73 74 75 74 74 73 72 73 74 75 75 75 76 77 77 78 78 79 80 81 81 82 83 84 85 85 85 86 86 86 87 87 87 88 88 89 89 89 90 90 91 92 93 94 95 95 96 97 98 98 99 99
58 59 60 60 61 61 63 63 63 63 63 63 65 66 67 67 68 70 72 72 71 73 75 75 74 74 73 72 71 71 72 74 76 77 78 77 76 76 75 75 74 74 74 75 75 76 77 77 78 77 76 75 75 76 77 77 78 78 79 79 79 80 80 81 81 82 83 83 84 85 85 86 86 87 87 87 88 88 89 89 90 90 90 90 91 91 92 93 94 95 96 97 98 99 100 101 101
58 58 59 60 60 61 61 62 63 63 63 63 64 64 65 66 67 69 70 68 69 71 73 76 77 78 78 77 75 74 74 75 76 77 78 79 80 80 80 79 79 79 79 78 78 79 80 81 82 81 80 79 78 79 80 80 80 81 81 81 81 82 82 83 83 84 84 85 85 86 87 87 88 88 89 90 90 91 91 92 92 92 92 92 93 93 93 94 95 95 96 97 98 99 100 101 102
56 57 58 59 59 59 60 60 60 61 61 61 62 63 65 66 67 68 69 67 68 69 70 73 75 78 79 80 80 80 80 80 79 78 79 79 80 81 82 82 83 84 83 82 82 82 82 84 85 85 84 83 82 83 83 84 84 84 84 84 84 85 85 85 85 86 86 87 87 88 89 90 90 91 91 92 93 94 94 95 95 95 95 96 96 96 97 97 97 98 98 99 99 100 100 101 102
55 56 56 57 58 58 58 58 58 58 58 59 59 60 63 65 66 67 68 67 67 68 69 70 72 74 77 78 80 81 83 84 84 83 83 83 81 81 82 83 85 86 86 86 86 86 86 86 87 87 87 87 86 87 87 88 88 88 88 88 88 88 88 88 89 89 90 90 90 91 92 92 92 93 94 94 95 96 96 97 98 98 98 99 99 99 100 100 101 101 101 102 102 103 103 103 104
53 54 54 54 55 56 55 55 54 54 54 54 54 56 60 63 63 64 65 66 66 67 69 70 71 73 75 77 78 79 80 82 83 85 86 87 86 85 85 84 85 86 88 89 90 89 89 89 89 90 90 90 90 91 91 92 92 92 92 92 92 92 92 92 92 93 93 93 93 94 95 96 96 96 97 97 97 98 99 100 100 101 101 101 101 102 102 103 103 104 105 105 106 106 106 107 107
50 50 50 50 51 52 51 50 50 50 50 50 49 50 56 59 57 58 59 61 62 64 66 69 71 73 75 77 78 79 80 80 81 82 84 86 87 88 88 88 87 88 89 90 91 91 91 91 92 92 93 93 94 94 95 95 96 96 96 97 96 96 96 97 97 97 97 97 97 98 99 100 100 100 101 101 101 102 103 103 103 103 103 103 104 105 105 106 106 107 108 108 109 109 110 110 110
46 46 46 46 47 48 48 47 47 47 47 47 45 46 54 57 53 51 53 55 57 58 61 63 66 68 70 73 76 78 80 81 81 81 82 83 84 86 87 89 90 91 91 91 92 92 92 93 93 94 95 96 97 97 98 98 98 99 100 100 100 100 101 101 101 101 101 101 101 102 103 103 104 104 105 105 105 106 107 107 107 107 107 107 108 108 109 110 110 110 111 111 112 112 113 113 114
43 43 44 44 44 45 46 45 45 45 44 44 43 43 50 53 49 47 49 52 53 55 58 58 60 61 64 67 70 73 76 78 80 81 82 82 82 83 85 86 87 89 91 92 93 94 94 95 95 95 96 97 97 98 98 99 100 101 102 102 102 103 104 104 104 104 104 104 104 104 105 106 107 107 108 108 109 109 110 110 110 110 111 111 111 112 113 113 114 114 115 115 115 116 116 117 117
42 42 42 42 42 42 43 42 42 43 42 42 41 40 45 48 46 44 46 47 49 52 54 54 56 58 60 62 64 67 69 71 74 76 77 78 80 82 83 83 84 85 87 89 91 92 94 95 96 97 98 99 100 100 101 101 102 103 104 104 104 104 105 106 106 106 106 106 106 107 107 108 109 109 109 110 111 111 112 112 112 112 113 113 114 115 116 116 117 117 117 118 118 118 119 119 120
40 40 40 40 39 39 39 39 39 40 40 41 39 39 43 43 41 40 42 44 46 49 51 51 53 55 57 58 60 63 64 66 68 68 69 71 73 75 77 78 79 81 83 85 87 89 90 91 93 94 96 98 100 101 102 103 104 105 106 106 106 106 107 107 108 108 109 109 110 110 110 111 112 112 113 113 113 114 114 115 115 115 116 116 117 117 118 119 119 119 120 120 120 121 121 122 123
38 38 39 39 38 36 36 37 37 38 38 38 37 38 41 39 37 37 39 41 44 47 48 48 50 51 53 54 55 56 58 60 62 62 63 65 66 67 69 70 72 74 77 79 82 84 86 87 89 90 91 93 95 96 98 99 101 102 104 104 105 106 107 107 108 109 110 111 112 112 113 113 115 115 116 116 116 117 118 118 119 119 120 120 121 122 122 123 123 123 124 125 125 125 126 126 127
37 37 37 38 38 36 35 35 36 36 37 36 36 38 38 37 36 35 37 39 42 43 44 44 46 47 49 49 50 51 52 54 55 56 58 59 61 62 63 65 66 68 70 72 74 76 79 80 81 83 84 86 87 89 91 92 94 95 97 98 99 100 101 102 103 104 106 107 109 109 110 111 112 113 113 114 114 115 117 118 119 120 120 120 121 122 122 123 124 124 125 125 125 126 126 127 127
35 36 36 37 37 36 35 35 34 35 36 35 35 37 36 34 35 35 35 37 39 40 40 40 41 41 43 44 45 46 48 49 51 53 55 56 57 59 60 61 62 64 65 66 68 70 72 73 74 76 77 78 79 81 83 84 86 87 88 89 91 91 92 93 94 96 97 99 100 101 102 103 104 104 105 105 106 107 108 110 111 112 113 113 114 115 116 116 117 118 119 119 119 120 120 121 121
34 34 35 36 36 36 35 35 34 34 35 34 35 37 35 34 34 35 35 36 37 38 39 38 38 37 37 39 40 41 42 43 45 47 49 51 53 54 56 58 59 61 62 63 65 67 68 69 71 71 72 73 74 75 76 77 79 80 80 82 83 84 85 85 86 88 88 90 91 92 93 94 94 94 94 95 95 96 98 99 100 101 102 103 104 104 105 106 107 109 109 110 111 111 112 113 113
34 34 34 34 35 36 35 35 34 34 34 34 35 37 35 33 34 35 36 36 36 38 40 40 39 37 36 36 37 37 38 38 39 41 42 44 45 47 49 51 53 55 56 58 59 61 63 65 66 66 67 68 69 70 71 73 73 74 75 77 78 78 79 80 81 81 82 83 85 86 86 86 86 86 86 87 87 88 89 90 91 92 93 93 94 95 96 97 99 100 101 102 102 103 104 105 106
33 34 34 34 35 36 36 35 34 33 33 33 35 37 36 32 32 35 35 36 36 37 39 40 40 40 39 38 38 38 38 38 39 40 40 41 42 43 45 46 47 48 49 50 51 53 55 57 58 59 59 60 62 63 63 65 65 66 68 69 70 71 72 73 73 74 76 77 77 78 79 79 79 80 80 81 81 82 83 84 85 86 87 87 88 89 90 92 93 94 95 96 96 97 98 99 100
33 33 34 34 35 35 36 36 36 35 32 32 33 37 39 34 31 34 35 35 37 37 38 39 41 42 42 42 42 42 42 41 42 42 42 43 44 44 45 45 46 47 48 48 48 50 51 53 54 55 56 57 57 58 59 59 60 61 62 63 64 65 66 68 69 71 72 71 72 73 74 75 77 78 79 80 80 81 82 83 84 85 86 87 87 88 89 91 92 93 94 95 95 96 97 97 98
34 34 34 34 35 35 35 36 37 37 35 33 33 34 41 39 32 34 36 36 38 40 40 41 41 42 43 43 45 45 45 45 45 46 46 46 46 47 47 48 49 49 49 50 50 52 53 54 55 56 57 59 59 60 60 60 61 62 63 63 65 66 67 69 71 72 72 71 73 74 76 77 79 80 82 82 83 84 84 85 86 88 89 90 90 91 92 93 94 95 96 96 97 98 98 98 99
33 33 34 34 35 35 36 36 36 38 37 36 35 34 40 42 36 36 40 39 41 42 42 44 43 44 44 45 46 47 48 48 49 49 49 50 50 50 51 51 52 53 52 53 54 55 56 57 58 59 61 62 63 63 63 63 64 65 66 66 67 68 70 72 74 74 74 74 76 77 79 81 82 84 85 86 87 87 88 89 90 91 92 93 94 94 95 96 97 98 99 99 100 100 100 100 100
32 33 33 34 36 36 37 37 37 39 39 38 38 37 40 42 38 38 43 44 45 45 45 46 47 47 47 47 48 49 50 51 52 52 52 53 53 54 54 54 55 56 56 57 58 58 59 60 61 62 64 65 66 66 67 67 68 69 69 69 70 72 73 75 77 76 76 78 79 81 83 84 85 87 88 89 90 91 92 93 93 94 94 96 97 97 98 99 100 100 101 101 101 101 101 101 101
32 32 33 34 35 36 36 37 37 38 39 38 39 39 40 43 40 37 41 44 45 46 46 47 47 48 48 48 49 50 52 53 53 53 53 54 55 55 56 56 57 58 58 59 60 61 62 62 63 65 66 68 69 69 70 70 71 72 72 73 74 75 76 78 79 79 80 82 83 84 85 86 87 88 89 90 92 93 94 95 95 95 96 97 97 98 99 100 100 101 101 101 101 101 101 101 102
31 32 32 32 33 35 35 35 35 36 37 37 37 37 38 42 41 37 36 39 41 43 44 45 45 46 46 47 48 49 49 50 51 52 52 53 54 55 55 56 56 57 58 59 60 60 61 62 63 64 66 67 68 69 70 71 72 72 73 74 75 77 78 79 79 79 81 82 82 83 84 85 85 86 87 88 89 91 92 93 94 94 94 95 95 96 97 98 99 99 100 100 99 99 99 100 100
33 32 32 32 33 34 35 35 35 36 37 37 38 39 39 42 44 40 36 36 39 42 43 43 43 44 46 47 47 48 48 48 49 51 52 52 53 53 54 54 55 55 56 57 58 59 60 61 61 62 64 65 65 66 66 68 69 69 70 71 72 73 74 75 75 76 77 78 78 80 81 81 82 82 84 85 86 88 90 91 91 91 92 93 93 94 95 95 96 96 97 97 96 96 96 97 97
36 35 35 35 34 35 37 38 37 38 40 40 41 42 43 46 49 47 42 39 40 44 46 45 45 46 47 48 48 49 50 50 51 52 53 53 53 53 54 55 55 56 57 58 59 60 61 62 63 63 64 65 65 65 66 67 68 68 69 69 70 71 72 73 73 74 76 76 77 78 79 80 81 82 83 84 86 88 90 90 91 92 92 93 93 94 95 95 96 96 95 95 95 95 95 95 96
39 39 39 38 38 37 38 39 39 40 42 43 43 44 45 49 53 54 50 46 45 46 49 48 48 49 49 49 50 50 52 53 54 55 56 57 57 57 57 58 58 58 59 60 61 62 63 64 64 65 67 68 68 69 69 70 70 71 71 71 72 73 74 75 76 77 78 79 80 80 81 81 82 83 84 86 88 89 90 90 91 92 93 94 95 95 96 96 97 97 97 97 96 96 97 96 96
42 43 42 42 41 39 39 40 39 40 41 43 44 44 45 49 56 59 55 54 53 50 49 51 51 52 51 51 52 52 52 53 54 56 57 59 60 60 61 61 62 62 62 63 64 65 66 66 67 68 70 71 71 72 72 73 73 73 74 74 75 76 77 77 78 79 81 82 82 83 83 83 84 85 86 87 88 89 89 90 91 92 93 94 95 96 96 97 97 98 98 98 98 98 99 98 98
42 44 44 44 44 43 42 41 40 40 39 40 43 44 44 46 55 63 61 59 61 56 52 52 53 54 53 53 54 53 53 53 54 56 58 59 60 60 61 61 62 62 63 63 65 66 67 68 69 69 71 72 73 73 74 74 75 75 76 76 77 78 78 79 80 81 83 84 84 85 85 85 86 87 88 88 89 90 90 90 90 91 92 93 94 96 96 97 97 98 98 98 99 99 100 100 100
43 44 45 45 45 46 44 42 42 41 37 37 41 42 43 43 50 63 66 67 71 67 59 56 56 57 57 55 55 55 55 56 56 58 60 62 63 64 64 64 64 64 63 63 64 66 67 68 69 70 72 73 74 75 75 75 76 76 76 77 78 79 80 81 82 83 84 85 86 86 87 87 88 89 89 90 90 90 90 91 91 91 91 92 93 94 96 97 97 98 98 98 99 100 101 101 101
46 46 46 45 46 47 46 43 42 43 38 34 36 39 40 39 44 55 61 68 76 76 70 65 62 61 59 57 57 57 59 60 60 60 62 64 66 68 68 68 69 68 66 65 65 66 68 69 71 72 74 75 76 77 78 78 78 77 78 79 80 81 82 82 84 85 86 87 87 88 89 90 90 91 91 91 91 91 91 92 92 92 92 93 93 94 95 97 98 98 99 99 100 102 102 102 103
49 49 49 48 48 48 48 46 44 44 40 34 34 36 36 36 40 48 55 62 71 75 75 72 69 66 64 62 62 62 63 63 62 62 63 65 67 69 70 71 72 72 70 69 69 69 69 70 72 74 75 77 78 79 79 80 80 80 80 81 82 83 84 84 85 86 87 88 89 90 91 92 92 93 94 93 93 92 92 92 93 93 93 94 94 95 95 97 99 100 101 102 103 104 104 104 104
53 53 54 55 55 54 53 51 49 48 45 38 34 33 35 38 41 47 53 58 64 70 74 74 72 70 68 66 66 65 65 65 64 65 65 66 68 70 72 74 75 74 73 72 72 71 71 72 73 74 75 77 78 79 80 80 80 80 80 82 83 85 86 86 87 88 89 90 91 92 93 93 94 95 96 96 95 94 94 94 94 94 95 95 96 96 97 98 99 101 102 104 105 106 107 106 106
57 57 59 61 63 62 60 58 58 59 54 46 39 34 37 42 43 47 53 57 62 68 72 73 73 71 69 67 67 67 67 67 66 67 68 69 70 72 74 76 76 77 77 76 75 75 74 74 75 76 77 78 79 80 81 81 81 81 81 83 84 86 86 87 88 89 90 91 93 95 95 96 97 97 98 98 98 97 96 95 95 95 96 96 97 98 99 100 100 101 102 104 106 108 108 109 109
61 61 63 66 68 69 68 65 64 67 64 59 52 42 38 44 48 52 56 59 65 70 71 73 73 72 72 71 71 72 71 70 70 70 71 72 73 74 75 77 78 79 80 79 79 79 79 78 79 79 80 81 82 83 83 83 83 83 84 85 86 87 88 89 89 91 92 93 95 96 97 98 98 99 100 100 100 100 99 98 98 97 97 98 98 99 100 101 102 102 103 104 106 108 109 110 111
65 65 67 70 72 74 76 73 70 72 70 69 67 53 41 48 58 63 64 65 69 70 71 74 75 75 76 76 77 78 77 76 76 76 76 75 76 76 77 79 80 81 82 82 82 82 82 82 82 82 83 83 84 85 85 85 86 86 86 87 88 89 90 91 91 92 94 95 97 98 99 100 100 100 101 102 102 102 102 101 100 99 99 100 100 101 102 103 103 104 105 106 107 108 109 110 112
Wind_Direction
291 287 284 280 276 276 275 273 272 271 270 269 268 265 264 262 261 260 254 248 244 239 238 236 234 235 236 236 237 237 238 237 237 235 234 235 234 236 236 236 238 238 239 240 239 240 241 242 242 242 242 243 244 244 244 245 245 245 245 245 246 246 246 246 246 246 245 244 244 244 243 244 244 244 245 245 246 247 248 248 249 250 251 251 252 253 254 254 255 256 257 258 259 259 259 260 260
288 285 281 277 275 274 273 272 271 270 269 269 267 265 264 263 261 260 257 251 245 240 238 237 235 235 236 237 238 237 238 238 238 239 240 240 238 238 238 237 238 239 241 242 242 242 243 244 244 243 243 244 244 245 246 247 247 246 246 246 247 247 247 247 247 247 246 245 245 245 244 245 245 245 245 245 246 247 248 249 250 250 251 252 252 252 253 253 254 255 257 258 258 259 259 259 259
286 282 279 275 273 271 271 271 269 267 267 267 267 265 263 262 261 260 258 255 248 242 240 239 239 239 239 240 241 241 241 240 239 241 243 244 243 243 243 240 239 239 240 242 243 243 244 244 243 243 244 244 245 245 246 246 246 246 246 246 246 247 247 247 247 247 246 246 245 245 245 246 246 247 247 247 247 248 249 250 250 251 252 252 252 252 252 253 254 255 256 257 258 259 259 259 259
284 281 278 275 272 271 270 270 268 267 266 265 265 264 262 262 262 261 260 258 254 248 244 243 243 244 245 245 245 245 245 244 242 242 243 244 245 246 247 246 243 242 242 243 244 246 246 246 245 245 245 245 246 246 246 246 246 245 245 245 245 246 246 246 247 247 247 247 247 246 246 246 247 247 248 249 249 250 250 251 251 252 252 252 253 253 253 254 255 256 256 257 257 258 258 259 260
283 280 277 275 273 271 270 269 267 266 265 263 262 262 263 262 262 262 261 259 257 254 250 249 249 249 250 249 248 247 247 246 245 244 244 244 245 247 249 249 248 246 247 247 247 248 248 248 248 248 248 247 247 247 247 246 246 246 246 247 247 247 248 248 248 248 249 249 249 248 248 247 247 247 247 248 249 250 250 251 252 252 253 254 254 254 255 256 256 257 257 257 257 257 258 258 259
281 279 277 275 272 270 269 267 266 264 263 263 262 262 263 263 261 260 261 260 258 257 254 253 252 252 252 250 248 247 247 247 247 246 245 246 246 248 248 250 252 251 250 250 250 250 251 251 250 250 250 249 248 248 248 248 248 249 250 251 251 251 251 250 250 250 250 250 250 249 249 248 248 247 247 248 248 249 249 250 251 252 253 254 255 255 255 256 256 257 257 257 257 257 257 258 258
279 278 277 275 272 271 270 268 266 264 263 263 263 263 263 262 261 261 261 261 260 259 258 256 254 253 252 250 249 248 248 248 248 247 247 247 247 247 248 250 252 253 252 251 251 252 253 254 254 253 253 251 251 251 251 252 252 252 253 253 253 253 252 252 252 251 251 251 250 250 250 249 249 249 249 249 249 249 249 250 250 251 252 253 254 254 255 255 256 256 256 256 256 256 257 257 257
278 277 276 275 274 272 271 269 267 265 263 262 262 262 262 261 261 261 261 261 261 260 260 259 257 254 252 251 249 248 248 248 248 247 247 247 247 247 248 249 250 252 254 253 253 253 253 254 255 255 254 254 255 255 256 256 256 255 254 253 253 253 253 253 253 253 252 252 251 251 250 250 251 251 251 251 251 251 251 251 251 251 252 252 253 253 253 254 254 255 255 255 255 255 256 256 256
276 275 275 274 273 273 272 270 268 266 263 261 260 260 260 260 259 259 259 259 259 260 260 259 257 255 253 252 250 249 248 247 247 247 247 247 247 247 248 249 249 250 252 254 255 254 253 252 254 254 254 255 256 257 258 258 258 258 257 256 256 255 254 253 253 253 253 253 253 252 252 252 252 252 252 252 252 253 253 253 253 253 253 253 253 253 253 253 253 254 254 254 254 255 255 255 255
276 275 274 273 272 272 271 270 268 267 265 262 261 259 258 258 257 257 258 258 258 258 258 258 257 256 255 253 252 251 249 248 247 247 247 247 247 247 247 247 248 249 250 251 253 254 254 253 253 253 253 253 254 256 257 258 258 259 260 259 259 258 257 256 254 254 253 253 253 253 253 253 253 253 252 252 252 253 253 254 254 254 254 254 254 254 254 254 253 253 253 254 254 254 254 254 255
277 276 274 273 271 270 269 268 268 267 266 264 263 261 259 258 257 257 257 257 258 257 257 257 258 257 256 254 253 252 251 251 249 248 247 247 246 246 246 246 247 248 249 250 252 253 254 254 254 254 253 253 254 255 256 257 257 258 259 260 260 260 259 259 257 256 255 254 254 254 253 253 253 253 253 253 253 253 253 253 253 253 254 254 255 255 255 255 254 254 254 254 254 254 254 254 254
278 276 275 274 272 270 269 268 267 267 266 265 264 263 262 261 260 258 257 256 257 257 257 257 257 257 256 255 254 252 252 251 251 250 249 248 247 246 246 246 246 246 248 249 251 252 252 253 254 255 255 254 254 254 256 256 257 258 258 259 260 260 260 260 259 258 258 257 256 255 254 253 253 253 253 254 254 253 253 253 253 254 254 254 254 254 255 255 255 255 255 255 255 255 255 254 254
277 276 276 275 274 272 271 268 267 267 267 267 266 266 265 263 263 261 259 257 256 256 257 256 256 256 256 256 256 254 253 251 251 250 250 250 250 250 248 247 246 247 247 248 249 250 251 252 253 254 255 256 255 255 256 256 257 258 258 259 259 260 260 260 260 260 259 259 258 258 257 256 254 253 253 254 254 253 253 253 253 253 254 254 254 254 254 254 254 255 255 255 255 255 255 255 255
272 272 272 273 273 272 271 269 269 269 269 269 269 269 268 266 264 263 262 260 258 257 257 256 256 255 255 255 256 257 256 253 252 251 250 250 250 252 252 250 249 248 248 248 248 249 250 251 251 252 253 255 256 256 257 257 258 258 259 259 259 259 260 260 260 260 260 259 258 259 259 258 257 256 255 255 254 254 254 253 253 253 253 254 254 254 254 254 254 254 254 255 255 255 255 255 255
268 268 268 268 269 269 269 269 269 270 271 269 269 269 269 268 267 266 265 263 261 260 259 258 257 256 255 255 255 256 257 255 254 253 252 252 252 252 253 253 253 251 249 248 248 248 249 249 250 251 251 253 254 255 257 258 258 259 260 260 260 260 260 260 260 260 260 259 259 258 258 258 259 258 257 257 256 256 255 254 253 253 253 253 253 254 254 255 255 255 255 255 255 255 255 255 256
265 265 265 265 265 265 266 267 268 268 269 269 268 267 268 268 268 267 267 265 264 262 261 260 259 258 257 256 256 256 256 256 255 253 253 252 252 252 253 254 254 254 252 250 249 249 249 249 249 250 250 251 252 254 255 256 258 259 260 261 261 261 261 261 261 260 260 259 259 259 258 257 258 258 257 257 257 257 256 255 254 253 253 253 253 254 254 255 255 255 255 255 255 255 255 255 255
265 264 264 264 263 263 263 264 266 267 267 267 267 266 266 267 268 268 268 267 267 265 263 262 262 261 260 258 257 257 257 257 256 255 254 253 253 253 253 253 253 254 253 252 251 250 249 249 249 250 250 250 251 253 253 255 256 257 258 259 260 261 262 262 263 262 261 261 260 259 258 258 257 256 256 257 257 257 257 256 255 254 254 254 254 254 254 254 255 255 255 255 255 255 255 255 255
268 266 265 264 264 263 262 263 264 266 267 266 265 265 265 265 267 269 270 270 269 267 265 264 264 263 262 261 259 258 258 258 258 257 256 256 255 255 255 255 255 254 253 253 252 251 250 250 250 250 251 251 251 252 253 253 254 256 257 257 258 259 260 261 262 262 262 262 261 261 260 259 258 257 256 256 256 257 257 256 256 255 255 255 255 255 255 255 255 255 255 255 255 255 256 256 256
271 269 267 266 265 264 263 263 263 264 266 266 266 266 265 265 265 266 268 269 269 268 267 267 266 264 263 262 260 259 259 259 258 258 257 257 256 256 256 256 256 256 256 254 253 252 251 251 251 252 252 252 252 252 253 253 254 255 255 256 257 258 258 259 259 260 261 261 262 262 261 260 260 259 258 257 256 257 257 257 256 256 256 256 256 256 256 256 256 255 255 255 255 255 255 256 256
273 271 270 269 268 267 266 265 265 265 265 265 265 266 266 266 266 265 265 266 267 267 267 266 265 264 264 263 262 260 259 259 259 259 259 258 258 257 257 256 257 257 257 257 256 255 253 252 252 252 253 253 253 254 254 254 255 255 256 256 257 257 258 258 258 259 259 260 261 262 262 262 261 261 260 260 259 258 258 257 257 257 257 257 257 257 256 256 256 256 256 255 255 255 255 255 255
274 273 272 271 270 270 269 268 267 266 266 266 265 266 266 266 266 266 265 266 267 266 265 264 263 263 263 263 263 262 260 260 259 259 259 259 259 259 258 258 258 258 258 257 257 256 256 254 253 253 253 253 254 254 255 255 255 256 256 257 257 258 258 258 259 259 259 260 260 261 261 262 262 262 262 261 261 260 259 259 258 258 257 257 257 257 257 257 257 257 256 256 256 255 255 255 255
276 275 273 272 272 272 271 270 269 269 268 268 268 268 267 267 267 267 267 267 267 266 264 263 262 262 262 262 262 262 261 261 261 260 259 259 259 259 259 259 259 260 259 259 258 257 257 256 254 253 253 254 254 255 256 256 256 256 257 257 258 258 259 259 260 260 260 260 260 261 261 261 262 262 262 262 261 261 260 260 259 259 258 258 258 258 257 257 257 257 257 257 257 256 256 256 256
278 277 276 275 275 274 273 272 271 270 270 270 270 269 269 269 268 268 268 267 266 265 264 264 263 262 261 261 261 261 261 261 262 262 261 260 259 258 258 259 259 259 260 260 260 259 258 257 256 254 253 253 255 256 257 257 258 258 258 259 259 259 260 260 260 261 261 261 262 262 262 262 262 262 262 262 262 262 262 261 261 260 260 259 259 258 258 258 258 258 258 258 257 257 257 257 257
280 278 278 277 276 275 275 274 273 271 270 270 270 270 269 269 268 268 267 266 266 265 265 263 263 262 261 261 260 259 259 259 260 260 261 261 261 260 260 259 259 259 260 260 260 260 260 259 258 257 255 255 255 256 256 257 258 259 259 260 260 260 261 261 261 262 262 262 263 263 263 263 264 264 264 264 264 263 263 263 262 262 261 261 260 260 259 259 259 259 258 258 258 258 258 258 257
279 279 278 277 276 275 274 274 273 272 271 270 270 269 269 268 267 266 265 265 265 264 264 263 263 262 261 261 260 259 259 258 258 258 258 258 259 259 259 260 260 260 261 261 261 261 261 261 261 260 258 257 257 257 257 257 257 258 259 259 260 260 261 261 262 262 263 263 263 264 264 264 264 265 265 265 265 265 264 264 264 264 263 263 262 262 261 261 260 260 260 259 259 259 259 258 258
279 278 277 276 275 274 273 273 272 272 271 270 270 269 269 268 267 266 265 265 264 263 263 263 263 262 262 262 261 260 259 258 258 258 258 257 257 257 257 258 258 259 259 260 261 261 261 261 262 261 260 260 259 259 259 259 259 259 259 259 259 260 260 261 261 262 262 263 264 264 264 264 265 265 265 265 265 265 265 265 265 265 264 264 264 264 263 263 262 262 261 261 261 260 260 259 259
280 279 278 277 276 275 273 272 272 271 270 269 268 268 267 267 266 266 266 265 264 264 263 263 263 262 262 262 261 261 260 259 259 258 258 257 257 257 257 257 257 257 258 258 259 259 260 261 261 262 262 262 262 262 262 261 261 261 261 260 260 260 260 260 260 261 261 262 262 263 263 264 264 264 264 264 264 265 265 265 265 265 265 265 265 265 265 264 264 264 264 263 263 262 262 261 261
283 282 281 280 279 277 276 275 274 272 271 270 269 268 267 266 265 265 265 265 264 264 264 263 263 263 263 262 261 261 260 260 260 259 259 258 257 257 257 257 257 257 258 258 258 258 258 259 260 261 262 263 263 263 264 264 264 264 263 263 263 262 262 262 261 261 261 262 262 262 263 263 263 263 263 264 264 264 264 264 264 264 264 264 264 264 265 265 265 265 265 264 264 264 263 263 262
284 283 282 281 280 279 278 277 276 275 273 272 271 270 268 267 265 264 264 265 264 264 263 263 263 263 263 263 262 261 261 260 260 260 260 260 259 258 257 256 256 257 257 257 258 258 258 259 260 261 261 262 263 263 264 265 265 265 266 265 265 265 265 264 264 264 263 263 263 263 263 263 263 263 263 263 264 264 264 264 263 263 263 264 264 264 264 264 264 264 264 264 264 264 264 264 263
286 284 283 282 281 280 279 279 278 277 276 274 273 272 270 268 266 266 266 266 265 264 263 263 262 262 262 262 263 263 262 261 261 260 260 260 260 259 259 258 257 257 256 257 257 258 259 259 260 261 261 262 262 263 264 264 265 265 266 266 266 266 266 266 266 265 265 265 265 265 265 265 265 265 265 265 265 265 265 265 265 264 264 264 264 264 264 264 264 264 264 264 264 264 264 264 264
287 286 284 283 282 282 281 280 279 278 277 276 275 273 272 270 269 269 268 267 266 265 264 262 262 262 262 262 262 262 262 262 261 261 260 260 260 260 260 260 259 258 258 258 258 258 258 259 259 260 261 262 262 263 263 264 264 265 265 265 265 265 265 265 265 265 265 266 266 266 266 267 266 266 266 266 266 266 266 266 266 266 266 266 266 266 265 265 265 265 265 265 265 265 265 265 264
289 287 285 284 283 283 283 282 281 280 279 277 275 273 273 273 273 272 271 270 268 267 265 264 263 263 262 262 262 262 262 262 262 262 261 261 261 261 261 261 261 261 261 260 260 260 259 259 259 260 261 261 262 262 263 263 263 263 264 264 264 264 264 265 265 265 266 266 266 266 266 266 267 267 267 267 267 267 267 267 267 267 267 267 267 267 267 266 266 266 266 266 265 265 265 265 265
290 288 287 286 285 284 284 283 282 281 280 278 276 274 272 274 275 275 273 272 271 269 267 266 265 263 262 262 262 262 262 262 263 263 263 263 263 263 263 263 263 263 263 263 262 262 262 261 261 260 260 261 261 261 261 262 262 262 262 263 263 264 265 265 266 266 266 266 266 266 266 266 266 267 267 267 267 267 267 268 268 268 268 268 268 268 267 267 267 267 267 267 267 267 267 267 266
291 290 288 287 286 286 286 285 284 283 282 282 281 278 274 275 277 277 275 274 272 270 269 267 265 264 264 263 263 264 264 265 265 265 266 265 265 265 265 264 264 264 263 263 263 263 263 262 262 261 261 261 261 261 262 262 262 262 263 263 264 264 265 265 266 266 266 266 266 266 266 266 266 266 266 267 267 267 267 268 268 268 268 268 268 268 268 268 268 268 268 268 268 268 268 268 268
293 293 292 291 289 289 288 287 287 286 285 285 285 282 280 281 282 279 277 274 271 270 271 270 269 269 268 267 266 266 267 267 268 268 267 267 266 266 265 265 264 263 263 263 263 263 263 262 262 262 262 262 263 263 263 263 263 264 264 264 264 264 264 265 265 265 265 266 266 266 266 266 266 266 266 267 267 267 267 268 267 267 267 267 268 268 268 268 268 268 268 268 268 268 269 268 268
296 295 295 293 293 292 290 289 289 289 288 288 287 284 285 287 285 282 280 277 275 274 274 274 274 274 273 272 270 269 267 267 267 267 267 267 266 266 265 265 264 264 263 263 263 263 263 263 263 263 263 263 263 263 263 263 264 264 264 264 264 265 265 265 265 265 266 266 266 266 266 266 266 266 267 267 267 267 267 267 267 267 267 268 268 268 268 268 268 268 268 268 268 268 269 269 269
296 295 294 293 293 293 292 291 290 290 289 290 289 287 288 289 287 285 283 282 281 280 279 277 276 276 276 275 274 272 270 268 267 266 266 266 266 266 265 265 264 264 264 264 264 264 264 264 264 263 263 263 263 263 263 263 264 264 264 265 265 265 265 265 265 265 266 266 266 266 266 266 267 267 267 267 267 267 267 267 267 268 268 268 268 268 268 268 268 268 268 269 269 269 269 268 269
295 295 294 294 293 293 294 293 292 291 291 291 290 289 290 291 290 289 286 286 286 286 284 281 279 278 278 278 276 275 273 272 270 269 268 268 267 267 266 266 265 265 265 265 265 265 265 265 265 264 264 264 264 264 264 264 265 265 265 265 265 265 265 265 265 265 266 266 266 266 266 267 267 267 267 267 267 267 267 267 268 268 268 268 268 268 268 268 268 268 268 268 268 268 268 268 268
297 296 295 294 294 294 294 294 293 293 294 294 292 291 291 292 293 292 291 291 290 290 289 287 285 282 281 280 279 278 276 274 273 272 272 271 270 269 269 268 268 268 268 267 268 268 268 268 267 267 267 267 266 266 266 266 266 266 266 266 266 266 266 266 266 266 266 266 266 267 267 268 268 268 268 267 267 267 268 268 268 268 268 268 268 268 268 268 268 268 268 268 268 268 268 268 268
299 298 297 296 295 295 295 294 293 293 294 296 295 293 290 291 293 293 293 293 292 291 291 291 290 287 285 283 282 280 278 276 276 275 274 274 273 272 272 272 272 272 271 271 271 272 271 271 271 271 271 270 269 269 268 268 268 268 268 268 268 268 268 268 268 268 267 267 268 269 269 269 269 269 268 268 268 268 268 268 268 268 268 268 268 268 267 267 267 268 267 267 267 268 268 268 268
299 298 297 296 295 294 294 294 293 291 291 291 292 293 292 289 290 291 291 291 290 288 288 288 289 289 289 288 286 284 282 281 279 278 277 276 276 276 275 275 275 275 274 274 274 273 273 273 274 273 273 272 271 270 269 269 269 269 269 269 269 269 269 270 269 268 268 269 270 270 270 270 270 270 270 269 269 269 269 269 269 269 269 268 268 268 268 268 268 268 268 268 268 268 268 268 268
300 299 298 297 296 294 294 294 294 293 291 289 287 289 290 289 288 287 286 285 284 284 284 284 285 286 287 287 287 287 286 285 284 282 281 279 278 278 277 277 276 276 276 275 275 274 274 273 273 273 273 272 271 271 270 270 269 269 269 269 270 270 270 270 269 269 270 270 270 271 271 271 271 271 271 270 270 270 270 270 269 269 269 269 269 268 268 268 268 269 269 269 268 268 268 268 268
300 300 299 299 298 297 297 296 296 295 295 294 291 289 289 289 289 288 286 285 283 283 283 283 283 283 283 283 283 283 283 283 282 281 281 280 279 279 278 278 278 277 277 276 275 275 274 274 274 273 273 273 272 272 272 271 270 270 270 270 270 270 270 270 270 271 271 271 271 271 271 271 271 272 272 272 272 271 271 271 270 270 270 270 269 269 269 269 269 269 269 269 269 269 269 269 268
304 303 303 302 301 301 300 300 300 299 298 298 297 295 293 292 292 290 290 289 288 287 286 285 285 284 283 283 282 282 282 281 281 280 280 281 280 280 279 279 278 278 277 276 275 275 274 274 273 274 273 273 273 273 273 273 272 272 272 271 271 271 270 271 271 272 273 272 272 272 272 272 272 273 273 273 273 273 273 272 272 271 271 271 271 270 270 270 270 270 270 269 269 269 269 269 268
310 308 307 306 304 303 303 302 302 301 301 301 299 298 296 293 291 289 288 288 288 288 287 286 286 285 284 284 283 283 282 282 283 282 282 282 281 281 280 280 279 279 278 277 276 276 275 275 274 274 274 274 274 274 274 274 274 273 273 273 273 272 272 272 273 273 273 273 273 273 273 273 274 274 274 274 274 274 274 273 273 273 272 272 272 272 272 271 271 271 271 270 270 270 270 269 269
311 310 309 308 307 306 305 304 304 303 302 302 300 299 297 294 291 286 284 285 286 287 287 288 289 289 288 287 286 285 285 286 286 286 285 284 283 283 283 282 282 281 281 280 279 279 278 277 277 276 276 275 275 275 275 275 274 274 274 274 273 273 273 273 274 274 274 273 274 274 274 274 274 274 275 275 275 275 275 275 274 274 274 273 273 273 273 272 272 272 272 272 271 271 271 271 270
310 309 308 307 307 307 306 306 306 305 304 303 302 301 300 297 295 289 285 288 291 290 290 291 292 292 292 291 290 290 290 290 289 288 288 287 286 286 285 285 285 284 284 284 283 283 282 281 280 279 278 278 277 277 277 276 276 276 275 275 274 274 274 274 274 274 273 274 274 274 274 274 275 275 275 276 276 276 276 276 276 276 275 275 275 274 274 274 273 273 272 272 272 272 272 272 272
311 310 308 308 307 307 307 307 307 307 307 307 307 306 305 302 299 295 291 293 293 292 290 290 291 290 289 289 290 290 290 289 288 287 286 285 284 284 283 283 283 283 283 283 283 283 282 282 282 281 280 280 279 279 278 278 277 277 276 276 276 275 275 275 275 275 274 274 274 274 275 275 276 277 277 277 278 277 277 278 278 278 277 277 276 275 274 274 273 273 273 273 272 272 272 272 273
313 311 310 309 307 307 306 306 307 307 307 308 308 308 307 305 301 297 296 295 291 288 288 288 288 286 286 287 287 288 288 288 287 286 286 285 284 283 282 281 280 280 280 280 281 281 281 281 281 281 280 280 280 280 279 278 278 277 277 277 277 276 276 276 276 276 276 276 276 276 276 277 277 278 278 278 278 278 279 279 279 279 279 278 277 276 275 274 274 273 273 273 273 273 273 273 273
315 312 311 309 307 306 303 302 303 302 303 305 305 305 306 305 302 298 297 295 291 287 286 286 285 284 284 285 286 287 288 288 288 288 288 287 286 286 284 284 283 283 283 283 283 284 283 283 282 282 281 281 281 281 280 279 279 278 278 278 278 277 277 277 277 277 277 276 277 277 277 277 277 277 277 277 278 278 279 279 280 280 280 279 278 277 276 275 274 274 273 273 273 273 273 273 273
316 313 311 310 309 307 304 304 302 300 301 302 303 305 306 306 304 301 299 297 292 288 286 285 285 284 284 285 286 287 288 288 289 290 290 288 287 286 285 284 284 283 283 283 283 283 283 283 282 282 282 281 281 281 280 280 279 279 279 278 278 278 277 277 277 276 276 277 277 277 277 277 277 277 277 277 278 278 279 279 280 280 280 279 278 277 276 276 275 275 274 274 274 274 273 273 273
317 314 313 313 312 310 308 308 306 303 303 303 303 304 305 307 305 302 303 301 296 293 291 289 287 286 286 287 287 288 288 288 288 289 289 289 288 286 285 284 283 281 280 280 280 280 280 280 280 280 280 280 279 279 279 278 278 278 278 277 277 277 277 277 276 276 276 276 276 277 277 276 276 276 277 277 278 278 279 279 280 280 280 279 278 277 276 276 275 275 274 274 274 274 274 274 274
317 315 315 315 314 312 311 312 310 307 308 309 307 305 304 305 301 298 301 300 297 298 298 295 292 290 290 291 291 291 290 290 289 288 287 287 287 287 286 285 283 282 281 280 280 279 279 279 279 279 278 278 278 278 278 278 277 277 277 277 277 276 276 276 276 276 276 276 277 277 276 276 276 276 276 277 277 278 279 279 279 280 280 279 279 278 277 276 275 275 274 274 274 274 275 275 275
318 316 316 315 313 313 312 312 310 308 308 310 310 309 308 306 299 295 295 293 294 298 299 297 296 296 296 297 296 294 292 291 290 289 288 287 287 287 286 285 284 284 284 283 281 280 279 279 278 278 278 278 278 278 278 278 278 278 278 277 277 277 276 276 276 277 277 277 277 277 277 277 277 277 276 277 277 278 278 278 279 279 279 279 279 279 278 277 276 275 274 274 275 275 275 275 276
319 318 319 317 315 315 314 312 311 308 307 308 307 309 309 306 300 295 291 291 294 295 295 296 297 298 299 299 298 297 296 295 294 293 291 290 288 287 286 286 286 286 286 285 283 282 281 280 280 280 280 280 280 280 280 280 280 280 279 279 278 278 277 277 277 277 277 277 277 277 277 277 277 277 277 277 277 277 277 278 278 278 278 279 279 279 278 277 277 276 275 275 275 275 275 275 276
319 320 320 318 317 317 316 315 315 312 309 308 305 304 308 307 301 293 291 292 293 291 292 294 296 298 299 299 299 299 298 297 296 295 293 291 289 287 287 288 288 288 287 286 285 284 284 283 282 282 282 282 282 282 282 282 282 282 281 281 280 279 279 279 278 278 278 278 278 278 278 278 278 278 278 278 278 278 277 277 277 277 277 278 278 278 278 277 277 276 276 275 275 275 275 275 275
318 321 320 318 317 317 315 316 316 314 313 313 307 303 308 309 301 293 292 291 290 290 292 296 297 299 300 299 299 298 297 296 295 293 291 289 288 288 288 288 288 288 287 287 287 286 285 285 284 284 283 283 283 283 283 283 283 283 282 282 282 282 281 281 281 280 280 280 279 279 279 278 278 279 279 279 279 278 278 277 277 277 277 277 277 277 277 277 277 277 277 276 275 275 274 274 274
318 320 319 318 317 316 314 315 316 314 314 315 310 304 310 311 302 296 295 293 293 294 296 298 299 300 299 298 297 297 297 296 294 292 290 290 290 289 289 288 287 287 287 287 287 286 286 285 284 284 283 283 282 282 282 282 282 282 282 283 283 283 283 282 282 282 281 281 280 280 279 279 279 279 279 279 279 279 279 278 278 278 278 277 277 277 277 277 277 277 277 276 276 275 275 274 274